[[{"header":{"parameterUnit":"m.s-1","parameterCategory":1,"la1":30.2992,"la2":30.254,"lo1":-89.0895,"lo2":-89.0443,"dy":0.0025,"dx":0.0025,"nx":19,"ny":19,"refTime":"2026-05-13T21:00:00:Z","depth":0,"parameterNumber":2,"parameterNumberName":"U-component_of_WINDS"},"data":[0,0,0,-2.4721,-2.4723,-2.482,-2.482,-2.4953,-2.4954,0,0,0,0,0,0,0,0,0,0,0,-2.4697,-2.4698,-2.4721,-2.4723,-2.482,-2.482,-2.4952,-2.4954,0,0,0,0,0,0,0,0,0,0,0,-2.4697,-2.4698,-2.4699,-2.4724,-2.482,-2.482,-2.4952,-2.4876,0,0,0,0,0,0,0,0,0,0,-2.4781,-2.4763,-2.4698,-2.4699,-2.4724,-2.482,-2.482,-2.4872,-2.4881,-2.4912,0,-2.4941,0,-2.495,-2.4963,-2.4964,0,0,0,-2.472,-2.4756,-2.4778,-2.4699,-2.4725,-2.482,-2.4775,-2.4877,-2.4887,-2.4924,-2.4943,-2.4948,-2.4952,-2.4964,-2.4965,-2.5156,-2.5157,0,0,-2.4714,-2.4717,-2.4771,-2.4784,-2.477,-2.4772,-2.4778,-2.4883,-2.4904,-2.4943,-2.4951,-2.4954,-2.4965,-2.4966,-2.5155,-2.5156,0,0,0,-2.4701,-2.4714,-2.4732,-2.4779,-2.4796,-2.4775,-2.4782,-2.4899,-2.4905,-2.4952,-2.4956,-2.4966,-2.4968,-2.5153,-2.5155,-2.5208,0,0,0,-2.4698,-2.4706,-2.473,-2.4733,-2.4794,-2.4849,-2.4797,-2.4898,-2.491,-2.4955,-2.4966,-2.4969,-2.5152,-2.5154,-2.5204,-2.5232,0,0,0,-2.4689,-2.4705,-2.472,-2.4733,-2.4775,-2.4847,-2.4859,-2.4901,-2.4912,-2.4964,-2.4969,-2.5151,-2.5154,-2.5201,-2.5227,-2.5282,0,0,0,-2.468,-2.4768,-2.4721,-2.482,-2.4774,-2.488,-2.4858,-2.4937,-2.4988,-2.4967,-2.5152,-2.5155,-2.5199,-2.5223,-2.5278,-2.5328,-2.5349,0,0,-2.4792,-2.4781,-2.4839,-2.48,-2.4915,-2.4865,-2.4987,-2.5031,-2.5035,-2.5115,-2.512,-2.5205,-2.5226,-2.5281,-2.5471,-2.5487,0,0,0,-2.4875,-2.4916,-2.4946,-2.4994,-2.503,-2.5062,-2.5087,-2.5104,-2.5172,-2.5076,-2.5241,-2.5254,-2.5286,-2.5309,-2.5324,-2.535,-2.5166,-2.5166,-2.5166,-2.5036,-2.5034,-2.5129,-2.5139,-2.5186,-2.5211,-2.5249,-2.5275,-2.5261,-2.53,-2.5323,-2.5438,-2.5466,-2.5476,-2.5504,-2.5351,-2.5351,-2.5351,-2.5351,-2.5197,-2.5255,-2.5233,-2.5317,-2.5315,-2.5386,-2.5414,-2.5401,-2.5467,-2.5421,-2.5449,-2.5397,-2.5495,-2.5519,-2.5355,-2.5354,-2.5354,-2.5354,-2.5353,-2.5301,-2.5328,-2.5346,-2.5414,-2.5467,-2.5475,-2.5538,-2.5535,-2.5533,-2.5561,-2.5584,-2.5583,-2.558,-2.5572,-2.5573,-2.5573,-2.5573,-2.5574,-2.5574,-2.54,-2.5419,-2.5472,-2.5517,-2.5546,-2.5585,-2.5611,-2.5641,-2.5672,-2.5664,-2.5665,-2.5645,-2.5506,-2.5469,-2.558,-2.5579,-2.5578,-2.5578,-2.5577,-2.5561,-2.5524,-2.5606,-2.5636,-2.5688,-2.574,-2.5735,-2.5795,-2.5819,-2.585,-2.5825,-2.5723,-2.5712,-2.57,-2.567,-2.5826,-2.5826,-2.5826,-2.5826,-2.5646,-2.5641,-2.5723,-2.5771,-2.5817,-2.5821,-2.5914,-2.5935,-2.5951,-2.5966,-2.5943,-2.5904,-2.5892,-2.5888,-2.5872,-2.5844,-2.6041,-2.6041,-2.6041,-2.5744,-2.5743,-2.5822,-2.5836,-2.5876,-2.5911,-2.5998,-2.6053,-2.6064,-2.605,-2.5977,-2.5968,-2.5904,-2.5883,-2.5865,-2.5841,-2.5789,0,0]},{"header":{"parameterUnit":"m.s-1","parameterCategory":1,"la1":30.2992,"la2":30.254,"lo1":-89.0895,"lo2":-89.0443,"dy":0.0025,"dx":0.0025,"nx":19,"ny":19,"refTime":"2026-05-13T21:00:00:Z","depth":0,"parameterNumber":3,"parameterNumberName":"V-component_of_WINDS"},"data":[0,0,0,-1.5133,-1.5135,-1.5203,-1.5203,-1.528,-1.5281,0,0,0,0,0,0,0,0,0,0,0,-1.511,-1.511,-1.5133,-1.5135,-1.5203,-1.5203,-1.528,-1.5281,0,0,0,0,0,0,0,0,0,0,0,-1.5109,-1.511,-1.511,-1.5135,-1.5203,-1.5203,-1.528,-1.5231,0,0,0,0,0,0,0,0,0,0,-1.5167,-1.5142,-1.511,-1.5111,-1.5135,-1.5202,-1.5203,-1.5229,-1.5234,-1.5246,0,-1.5257,0,-1.527,-1.5285,-1.5286,0,0,0,-1.5137,-1.5138,-1.516,-1.5111,-1.5136,-1.5202,-1.5173,-1.5232,-1.5238,-1.5253,-1.5258,-1.5261,-1.5271,-1.5286,-1.5286,-1.535,-1.535,0,0,-1.5133,-1.5119,-1.5156,-1.5163,-1.5155,-1.517,-1.5175,-1.5236,-1.524,-1.5259,-1.5263,-1.5273,-1.5286,-1.5287,-1.535,-1.535,0,0,0,-1.5121,-1.5117,-1.5137,-1.516,-1.5173,-1.5172,-1.5177,-1.5237,-1.5245,-1.5264,-1.5274,-1.5287,-1.5288,-1.535,-1.535,-1.5347,0,0,0,-1.5119,-1.511,-1.5135,-1.5128,-1.5172,-1.5207,-1.5177,-1.5241,-1.5249,-1.5273,-1.5287,-1.5288,-1.535,-1.535,-1.5347,-1.5348,0,0,0,-1.5106,-1.5108,-1.5117,-1.5127,-1.5156,-1.5206,-1.5218,-1.5243,-1.5254,-1.5286,-1.5288,-1.5349,-1.535,-1.5347,-1.5347,-1.536,0,0,0,-1.5088,-1.5113,-1.5117,-1.5147,-1.5155,-1.5205,-1.5217,-1.5254,-1.5281,-1.5287,-1.535,-1.535,-1.5346,-1.5347,-1.536,-1.5368,-1.5371,0,0,-1.5111,-1.5115,-1.5134,-1.514,-1.5185,-1.5195,-1.524,-1.5276,-1.529,-1.5329,-1.5331,-1.5347,-1.5347,-1.536,-1.5391,-1.5393,0,0,0,-1.5137,-1.515,-1.5165,-1.5191,-1.5221,-1.5246,-1.5277,-1.5291,-1.5324,-1.5308,-1.5356,-1.5356,-1.5364,-1.5369,-1.5371,-1.5378,-1.5352,-1.5352,-1.5352,-1.5148,-1.5167,-1.52,-1.5227,-1.5251,-1.5284,-1.5305,-1.5328,-1.5339,-1.5349,-1.5361,-1.5378,-1.5383,-1.5384,-1.5391,-1.5367,-1.5367,-1.5367,-1.5367,-1.5183,-1.5204,-1.5219,-1.5256,-1.5275,-1.5305,-1.5337,-1.5343,-1.5373,-1.5371,-1.5379,-1.5374,-1.5385,-1.5393,-1.5367,-1.5367,-1.5367,-1.5367,-1.5367,-1.5192,-1.5206,-1.5223,-1.5262,-1.529,-1.5315,-1.5343,-1.5359,-1.5374,-1.5382,-1.5395,-1.5395,-1.5396,-1.5387,-1.5387,-1.5388,-1.5388,-1.5388,-1.5388,-1.5194,-1.5214,-1.5237,-1.5271,-1.5289,-1.5315,-1.5348,-1.5366,-1.5389,-1.5398,-1.5398,-1.5407,-1.5384,-1.5377,-1.5389,-1.5388,-1.5388,-1.5388,-1.5388,-1.522,-1.5217,-1.5253,-1.5271,-1.5312,-1.5337,-1.5358,-1.5393,-1.541,-1.5423,-1.543,-1.5411,-1.5415,-1.5414,-1.5408,-1.5427,-1.5427,-1.5427,-1.5427,-1.5227,-1.5232,-1.5271,-1.53,-1.533,-1.5352,-1.5389,-1.5414,-1.5439,-1.545,-1.545,-1.5444,-1.5442,-1.5447,-1.5445,-1.544,-1.5467,-1.5467,-1.5467,-1.5244,-1.5252,-1.5281,-1.5308,-1.5341,-1.5368,-1.5403,-1.5433,-1.5461,-1.5469,-1.5459,-1.5457,-1.5448,-1.5444,-1.5451,-1.5448,-1.5439,0,0]}]]